timestamp,wind_dir_avg,wind_spd_avg,wind_spd_max_dir,wind_spd_gust,battery_voltage,lat,long
2021-06-10 00:04:01+00:00,193.0,1.35,198.0,1.79,13.37,47.59359,-54.27349
2021-06-10 00:14:01+00:00,190.0,1.6,194.0,1.73,12.81,47.59359,-54.27349
2021-06-10 00:24:01+00:00,158.0,1.83,156.0,1.94,12.81,47.59359,-54.27349
2021-06-10 00:34:01+00:00,169.0,2.08,167.0,2.2,12.81,47.59359,-54.27349
2021-06-10 00:44:01+00:00,163.0,1.66,163.0,1.8,12.81,47.59359,-54.27349
2021-06-10 00:54:01+00:00,166.0,1.28,164.0,1.37,12.81,47.59359,-54.27349
2021-06-10 01:04:01+00:00,175.0,0.46,156.0,0.56,12.81,47.59359,-54.27349
2021-06-10 01:14:00+00:00,130.0,0.48,138.0,0.59,12.65,47.59359,-54.27349
2021-06-10 01:24:00+00:00,282.0,0.71,291.0,0.97,12.65,47.59359,-54.27349
2021-06-10 01:34:00+00:00,15.0,4.29,27.0,5.03,12.65,47.59359,-54.27349
2021-06-10 01:44:00+00:00,35.0,6.77,34.0,7.33,12.65,47.59359,-54.27349
2021-06-10 01:54:00+00:00,43.0,5.94,40.0,6.79,12.65,47.59359,-54.27349
2021-06-10 02:04:00+00:00,43.0,5.39,47.0,6.29,12.65,47.59359,-54.27349
2021-06-10 02:14:01+00:00,50.0,4.64,50.0,5.12,12.57,47.59359,-54.27349
2021-06-10 02:24:01+00:00,57.0,3.5,57.0,4.73,12.57,47.59359,-54.27349
2021-06-10 02:34:01+00:00,55.0,2.98,57.0,3.97,12.57,47.59359,-54.27349
2021-06-10 02:44:01+00:00,85.0,2.22,87.0,2.6,12.57,47.59359,-54.27349
2021-06-10 02:54:01+00:00,151.0,1.35,137.0,1.68,12.57,47.59359,-54.27349
2021-06-10 03:04:01+00:00,117.0,2.07,120.0,2.51,12.57,47.59359,-54.27349
2021-06-10 03:14:00+00:00,88.0,2.34,81.0,3.02,12.57,47.59359,-54.27349
2021-06-10 03:24:00+00:00,98.0,2.72,63.0,4.1,12.57,47.59359,-54.27349
2021-06-10 03:34:00+00:00,118.0,2.94,131.0,4.6,12.57,47.59359,-54.27349
2021-06-10 03:44:00+00:00,110.0,1.97,132.0,4.2,12.57,47.59359,-54.27349
2021-06-10 03:54:00+00:00,117.0,2.94,126.0,4.84,12.57,47.59359,-54.27349
2021-06-10 04:04:00+00:00,122.0,4.14,126.0,5.02,12.57,47.59359,-54.27349
2021-06-10 04:14:00+00:00,113.0,3.74,112.0,5.83,12.57,47.59359,-54.27349
2021-06-10 04:24:00+00:00,121.0,6.11,128.0,7.16,12.57,47.59359,-54.27349
2021-06-10 04:34:00+00:00,113.0,4.01,123.0,6.14,12.57,47.59359,-54.27349
2021-06-10 04:44:00+00:00,93.0,4.35,87.0,7.14,12.57,47.59359,-54.27349
2021-06-10 04:54:00+00:00,101.0,3.64,79.0,5.61,12.57,47.59359,-54.27349
2021-06-10 05:04:00+00:00,89.0,3.82,71.0,5.78,12.57,47.59359,-54.27349
2021-06-10 05:14:01+00:00,100.0,2.96,111.0,4.59,12.49,47.59359,-54.27349
2021-06-10 05:24:01+00:00,73.0,2.91,61.0,4.71,12.49,47.59359,-54.27349
2021-06-10 05:34:01+00:00,106.0,3.32,127.0,5.39,12.49,47.59359,-54.27349
2021-06-10 05:44:01+00:00,99.0,3.69,97.0,6.26,12.49,47.59359,-54.27349
2021-06-10 05:54:01+00:00,73.0,3.13,68.0,4.28,12.49,47.59359,-54.27349
2021-06-10 06:04:01+00:00,68.0,4.12,68.0,4.79,12.49,47.59359,-54.27349
2021-06-10 06:14:00+00:00,68.0,4.14,71.0,5.0,12.41,47.59359,-54.27349
2021-06-10 06:24:00+00:00,66.0,5.51,67.0,6.06,12.41,47.59359,-54.27349
2021-06-10 06:34:00+00:00,58.0,5.23,58.0,5.8,12.41,47.59359,-54.27349
2021-06-10 06:44:00+00:00,64.0,5.32,59.0,6.39,12.41,47.59359,-54.27349
2021-06-10 06:54:00+00:00,62.0,5.52,62.0,6.48,12.41,47.59359,-54.27349
2021-06-10 07:04:00+00:00,65.0,5.83,60.0,6.35,12.41,47.59359,-54.27349
2021-06-10 07:14:00+00:00,68.0,5.73,70.0,6.26,12.41,47.59359,-54.27349
2021-06-10 07:24:00+00:00,53.0,6.21,55.0,6.96,12.41,47.59359,-54.27349
2021-06-10 07:34:00+00:00,46.0,7.27,46.0,7.81,12.41,47.59359,-54.27349
2021-06-10 07:44:00+00:00,49.0,8.02,47.0,9.56,12.41,47.59359,-54.27349
2021-06-10 07:54:00+00:00,49.0,8.54,46.0,9.4,12.41,47.59359,-54.27349
2021-06-10 08:04:00+00:00,54.0,8.73,50.0,9.37,12.41,47.59359,-54.27349
2021-06-10 08:14:01+00:00,57.0,8.58,57.0,9.14,12.41,47.59359,-54.27349
2021-06-10 08:24:01+00:00,65.0,8.29,68.0,9.27,12.41,47.59359,-54.27349
2021-06-10 08:34:01+00:00,69.0,8.79,71.0,9.89,12.41,47.59359,-54.27349
2021-06-10 08:44:01+00:00,75.0,6.07,67.0,7.99,12.41,47.59359,-54.27349
2021-06-10 08:54:01+00:00,83.0,4.81,86.0,7.38,12.41,47.59359,-54.27349
2021-06-10 09:04:01+00:00,78.0,4.36,58.0,5.85,12.41,47.59359,-54.27349
2021-06-10 09:14:01+00:00,76.0,4.5,69.0,6.04,12.41,47.59359,-54.27349
2021-06-10 09:24:01+00:00,75.0,4.64,82.0,5.7,12.41,47.59359,-54.27349
2021-06-10 09:34:01+00:00,69.0,5.27,74.0,6.43,12.41,47.59359,-54.27349
2021-06-10 09:44:01+00:00,74.0,5.72,68.0,7.61,12.41,47.59359,-54.27349
2021-06-10 09:54:01+00:00,82.0,3.95,73.0,6.87,12.41,47.59359,-54.27349
2021-06-10 10:04:01+00:00,83.0,5.22,93.0,7.43,12.41,47.59359,-54.27349
2021-06-10 10:14:00+00:00,77.0,5.36,69.0,7.64,12.41,47.59359,-54.27349
2021-06-10 10:24:00+00:00,81.0,4.75,68.0,7.87,12.41,47.59359,-54.27349
2021-06-10 10:34:00+00:00,79.0,5.85,76.0,8.21,12.41,47.59359,-54.27349
2021-06-10 10:44:00+00:00,71.0,6.1,69.0,8.76,12.41,47.59359,-54.27349
2021-06-10 10:54:00+00:00,72.0,6.4,75.0,7.89,12.41,47.59359,-54.27349
2021-06-10 11:04:00+00:00,70.0,7.51,71.0,8.21,12.41,47.59359,-54.27349
2021-06-10 11:14:01+00:00,70.0,7.38,68.0,8.17,12.41,47.59359,-54.27349
2021-06-10 11:24:01+00:00,69.0,7.69,63.0,8.72,12.41,47.59359,-54.27349
2021-06-10 11:34:01+00:00,73.0,6.54,68.0,8.46,12.41,47.59359,-54.27349
2021-06-10 11:44:01+00:00,73.0,7.08,69.0,8.31,12.41,47.59359,-54.27349
2021-06-10 11:54:01+00:00,70.0,7.34,71.0,8.2,12.41,47.59359,-54.27349
2021-06-10 12:04:01+00:00,68.0,7.45,69.0,8.6,12.41,47.59359,-54.27349
2021-06-10 12:14:01+00:00,63.0,7.16,59.0,7.97,12.57,47.59359,-54.27349
2021-06-10 12:24:01+00:00,63.0,6.46,62.0,7.31,12.57,47.59359,-54.27349
2021-06-10 12:34:01+00:00,64.0,7.73,65.0,8.79,12.57,47.59359,-54.27349
2021-06-10 12:44:01+00:00,71.0,7.9,66.0,9.04,12.57,47.59359,-54.27349
2021-06-10 12:54:01+00:00,74.0,6.98,71.0,8.4,12.57,47.59359,-54.27349
2021-06-10 13:04:01+00:00,76.0,6.78,81.0,9.19,12.57,47.59359,-54.27349
2021-06-10 13:14:01+00:00,73.0,6.58,74.0,8.4,12.89,47.59359,-54.27349
2021-06-10 13:24:01+00:00,74.0,6.75,50.0,9.55,12.89,47.59359,-54.27349
2021-06-10 13:34:01+00:00,72.0,6.09,72.0,7.81,12.89,47.59359,-54.27349
2021-06-10 13:44:01+00:00,73.0,6.22,67.0,7.79,12.89,47.59359,-54.27349
2021-06-10 13:54:01+00:00,70.0,7.82,74.0,9.12,12.89,47.59359,-54.27349
2021-06-10 14:04:01+00:00,65.0,8.71,62.0,9.53,12.89,47.59359,-54.27349
2021-06-10 14:14:01+00:00,67.0,8.36,64.0,9.86,13.13,47.59359,-54.27349
2021-06-10 14:24:01+00:00,67.0,8.75,63.0,9.61,13.13,47.59359,-54.27349
2021-06-10 14:34:01+00:00,69.0,8.55,71.0,9.28,13.13,47.59359,-54.27349
2021-06-10 14:44:01+00:00,71.0,8.8,77.0,10.02,13.13,47.59359,-54.27349
2021-06-10 14:54:01+00:00,66.0,9.39,59.0,10.28,13.13,47.59359,-54.27349
2021-06-10 15:04:01+00:00,65.0,9.52,69.0,11.31,13.13,47.59359,-54.27349
2021-06-10 15:14:01+00:00,68.0,12.2,72.0,15.04,13.68,47.59359,-54.27349
2021-06-10 15:24:01+00:00,69.0,9.27,72.0,10.61,13.68,47.59359,-54.27349
2021-06-10 15:34:01+00:00,70.0,10.25,70.0,12.77,13.68,47.59359,-54.27349
2021-06-10 15:44:01+00:00,70.0,11.41,71.0,12.79,13.68,47.59359,-54.27349
2021-06-10 15:54:01+00:00,70.0,8.95,70.0,12.68,13.68,47.59359,-54.27349
2021-06-10 16:04:01+00:00,64.0,10.81,66.0,12.61,13.68,47.59359,-54.27349
2021-06-10 16:14:01+00:00,68.0,10.57,68.0,11.91,13.29,47.59359,-54.27349
2021-06-10 16:24:01+00:00,60.0,10.19,60.0,11.88,13.29,47.59359,-54.27349
2021-06-10 16:34:01+00:00,64.0,10.51,59.0,11.84,13.29,47.59359,-54.27349
2021-06-10 16:44:01+00:00,61.0,9.23,58.0,10.96,13.29,47.59359,-54.27349
2021-06-10 16:54:01+00:00,56.0,10.12,62.0,11.32,13.29,47.59359,-54.27349
2021-06-10 17:04:01+00:00,55.0,9.86,47.0,11.88,13.29,47.59359,-54.27349
2021-06-10 17:14:01+00:00,55.0,10.22,53.0,11.83,13.29,47.59359,-54.27349
2021-06-10 17:24:01+00:00,55.0,9.11,55.0,10.35,13.29,47.59359,-54.27349
2021-06-10 17:34:01+00:00,55.0,9.05,58.0,10.82,13.29,47.59359,-54.27349
2021-06-10 17:44:01+00:00,57.0,9.57,66.0,10.75,13.29,47.59359,-54.27349
2021-06-10 17:54:01+00:00,49.0,9.47,59.0,12.67,13.29,47.59359,-54.27349
2021-06-10 18:04:01+00:00,46.0,10.04,33.0,12.35,13.29,47.59359,-54.27349
2021-06-10 18:14:01+00:00,59.0,10.68,58.0,12.58,13.21,47.59359,-54.27349
2021-06-10 18:24:01+00:00,58.0,10.55,53.0,12.03,13.21,47.59359,-54.27349
2021-06-10 18:34:01+00:00,59.0,10.31,57.0,12.02,13.21,47.59359,-54.27349
2021-06-10 18:44:01+00:00,56.0,10.55,62.0,11.77,13.21,47.59359,-54.27349
2021-06-10 18:54:01+00:00,55.0,11.12,53.0,13.1,13.21,47.59359,-54.27349
2021-06-10 19:04:01+00:00,50.0,11.38,40.0,13.47,13.21,47.59359,-54.27349
2021-06-10 19:14:01+00:00,55.0,10.31,57.0,12.25,13.13,47.59359,-54.27349
2021-06-10 19:24:01+00:00,49.0,10.26,48.0,11.86,13.13,47.59359,-54.27349
2021-06-10 19:34:01+00:00,50.0,10.1,50.0,11.51,13.13,47.59359,-54.27349
2021-06-10 19:44:01+00:00,47.0,10.73,50.0,12.13,13.13,47.59359,-54.27349
2021-06-10 19:54:01+00:00,47.0,10.48,44.0,11.86,13.13,47.59359,-54.27349
2021-06-10 20:04:01+00:00,45.0,10.49,40.0,11.58,13.13,47.59359,-54.27349
2021-06-10 20:14:01+00:00,49.0,10.79,50.0,12.61,12.97,47.59359,-54.27349
2021-06-10 20:24:01+00:00,46.0,11.07,47.0,12.31,12.97,47.59359,-54.27349
2021-06-10 20:34:01+00:00,48.0,9.4,52.0,10.88,12.97,47.59359,-54.27349
2021-06-10 20:44:01+00:00,45.0,9.16,42.0,10.55,12.97,47.59359,-54.27349
2021-06-10 20:54:01+00:00,45.0,8.74,43.0,9.76,12.97,47.59359,-54.27349
2021-06-10 21:04:01+00:00,46.0,10.15,47.0,11.14,12.97,47.59359,-54.27349
2021-06-10 21:14:01+00:00,45.0,9.72,48.0,10.84,12.97,47.59359,-54.27349
2021-06-10 21:24:01+00:00,43.0,10.84,36.0,12.08,12.97,47.59359,-54.27349
2021-06-10 21:34:01+00:00,41.0,10.3,39.0,11.96,12.97,47.59359,-54.27349
2021-06-10 21:44:01+00:00,46.0,10.21,44.0,11.48,12.97,47.59359,-54.27349
2021-06-10 21:54:01+00:00,47.0,11.05,46.0,12.65,12.97,47.59359,-54.27349
2021-06-10 22:04:01+00:00,50.0,11.03,50.0,11.96,12.97,47.59359,-54.27349
2021-06-10 22:14:01+00:00,42.0,10.62,42.0,12.34,12.81,47.59359,-54.27349
2021-06-10 22:24:01+00:00,44.0,10.81,47.0,12.16,12.81,47.59359,-54.27349
2021-06-10 22:34:01+00:00,35.0,11.0,37.0,13.54,12.81,47.59359,-54.27349
2021-06-10 22:44:01+00:00,36.0,10.82,38.0,11.59,12.81,47.59359,-54.27349
2021-06-10 22:54:01+00:00,49.0,10.23,52.0,11.9,12.81,47.59359,-54.27349
2021-06-10 23:04:01+00:00,43.0,9.52,39.0,10.92,12.81,47.59359,-54.27349
2021-06-10 23:14:01+00:00,46.0,10.64,38.0,11.77,12.57,47.59359,-54.27349
2021-06-10 23:24:01+00:00,42.0,10.06,41.0,11.04,12.57,47.59359,-54.27349
2021-06-10 23:34:01+00:00,38.0,9.84,39.0,10.67,12.57,47.59359,-54.27349
2021-06-10 23:44:01+00:00,38.0,10.14,36.0,11.84,12.57,47.59359,-54.27349
2021-06-10 23:54:01+00:00,42.0,9.87,46.0,11.09,12.57,47.59359,-54.27349
